Find Starlink 2330

NORAD ID: 47874 Int'l Des: 2021-021 Owner: SPXS Country: US Constellation: starlink operational
LEOCIRCULARSTARLINK_TYPE

当前视图

正在加载3D地球...

About Starlink 2330

Starlink 2330 (NORAD 47874) is a starlink constellation satellite (v1.0) launched Mar 14, 2021 by SPXS of US. It operates in LEO, CIRCULAR, STARLINK_TYPE orbit with a mass of 260.00 kg.

即将过境

Passes for default location (London). Set your location on the main map for personalized predictions.

高度历史

Loading altitude history...

两行轨道根数

1 47874U 21021Q 26264.28762622 .00043583 00000-0 87025-3 0 9999
2 47874 53.1404 17.5514 0002063 33.1728 326.9408 15.46421298307056
Epoch: Sep 21, 2026 • Age: 12 hours

当前状态

高度 439.0 km
远地点 / 近地点 N/A
速度 7.65 km/s
星下点 -37.46°S, 53.13°E
发射日期 Mar 14, 2021
运行时间 5.5 years
类型 internet

技术详情

分类 Payload
质量 260.00 kg
干质量 248.00 kg
长度 0.20 m
跨度 9.00 m
形状 ? Box + pan
制造商 SPXS
平台类型 Starlink
阶段状态 In Orbit
所有者/国家 SPXS/US

Most Searched